Miscellaneous Local Product
Issued by NWS North Platte, NE

Home | Current Version | Previous Version | Text Only | Print | Product List | Glossary On
Versions: 1 2 3 4 5 6 7 8 9 10 11 12 13 14 15 16 17 18 19 20 21 22 23 24 25 26 27 28 29 30 31 32 33 34 35 36 37 38 39 40 41 42 43 44 45 46 47 48 49 50
000
AXUS43 KLBF 021910
MISLBF


WESTERN AND NORTH CENTRAL NEBRASKA HOURLY WEATHER ROUNDUP
NATIONAL WEATHER SERVICE NORTH PLATTE NE
200 PM CDT WED SEP 02 2015

NOTE: "FAIR" INDICATES FEW OR NO CLOUDS BELOW 12,000 FEET WITH NO
SIGNIFICANT WEATHER AND/OR OBSTRUCTIONS TO VISIBILITY.

NOTE: STATIONS NOT REPORTING VARIABLES SUCH AS SKY/WEATHER OR
PRESSURE ARE PROVIDED BY THE NEBRASKA DEPARTMENT OF
ROADS...RAWS...AND APRS NETWORKS...AND ARE NOT UNDER
NATIONAL WEATHER SERVICE QUALITY CONTROL.

...OBSERVATIONS IN AND NEAR THE EASTERN PANHANDLE OF NEBRASKA...

CITY           SKY/WX    TMP DP  RH WIND       PRES   REMARKS
PINE RIDGE     MOSUNNY   96  47  18 SW10      29.88F HX  92
CHADRON        MOSUNNY   96  44  16 SW12      29.87F HX  92
ALLIANCE       MOSUNNY   91  43  18 SE7       29.94F
SIDNEY         SUNNY     92  42  17 SW9       29.99F
CRESCENT LAKE    N/A     92  47  21 W5          N/A
BIG SPRINGS      N/A     92  49  22 CALM        N/A
$$

...OBSERVATIONS IN NORTH CENTRAL NEBRASKA...

CITY           SKY/WX    TMP DP  RH WIND       PRES   REMARKS
VALENTINE      SUNNY     97  47  18 S9        29.83F HX  93
THEDFORD       SUNNY     95  53  24 S7        29.88F HX  92
AINSWORTH      MOSUNNY   97  53  22 S13       29.85S HX  94
O`NEILL        SUNNY     95  64  36 S15       29.83F HX  97
ORD            SUNNY     96  60  30 SE12      29.84F HX  96
BROKEN BOW     SUNNY     97  56  25 S14G20    29.86F HX  95
SPRINGVIEW       N/A     96  67  38 CALM        N/A  HX 100
SARGENT          N/A     91  70  49 SE5G12      N/A  HX  96
CHAMBERS         N/A     95  65  37 S8G17       N/A  HX  97
EWING            N/A     91  76  60 S6          N/A  HX 102
$$

...OBSERVATIONS IN SOUTHWEST NEBRASKA AND FAR NORTHEAST COLORADO...

CITY           SKY/WX    TMP DP  RH WIND       PRES   REMARKS
WRAY           CLOUDY    97  42  15 S6        29.95F HX  93
HOLYOKE        FAIR      93  55  27 CALM      29.96F HX  91
IMPERIAL       MOSUNNY   94  53  25 VRB3      29.92F HX  91
OGALLALA       SUNNY     91  51  25 SW5       29.92F
NORTH PLATTE   SUNNY     94  64  37 SE3       29.87F HX  95
MCCOOK         SUNNY     98  55  23 E12       29.87F HX  96
LEXINGTON      SUNNY     93  62  36 S12       29.88F HX  94
PAXTON           N/A     93  61  34 S3          N/A  HX  93
BRADY            N/A     94  68  42 CALM        N/A  HX  98
CALLAWAY         N/A     90  72  54 S12         N/A  HX  96
$$

...OBSERVATIONS IN CENTRAL LINCOLN COUNTY AREA...

CITY           SKY/WX    TMP DP  RH WIND       PRES   REMARKS
N.P. AIRPORT   SUNNY     94  64  37 SE3       29.87F HX  95
N.P. DOWNTOWN    N/A     97  57  26 MISG        N/A  HX  96
N.P. SOUTHEAST   N/A     97  57  26 S6          N/A  HX  96
N.P. HILLCREST   N/A     95  59  29 SE7         N/A  HX  94
$$

...SOME OBSERVATIONS FROM AROUND THE REGION...

CITY           SKY/WX    TMP DP  RH WIND       PRES   REMARKS
DENVER         PTSUNNY   89  37  16 NW12G17   30.09F
LARAMIE        MOSUNNY   77  38  24 VRB6      30.21F
CHEYENNE       PTSUNNY   85  34  16 NW9G20    30.12F
SCOTTSBLUFF    SUNNY     90  47  22 NW7       29.95F
RAPID CITY     SUNNY     92  56  29 E5        29.82F HX  90
PIERRE         MOSUNNY   88  67  49 CALM      29.75F HX  91
WINNER         FAIR      95  56  26 S8        29.79F HX  93
SIOUX FALLS    MOSUNNY   85  73  67 S13       29.83F HX  91
OMAHA          MOSUNNY   86  70  58 S17G26    29.88F HX  90
GRAND ISLAND   SUNNY     92  64  39 S16       29.88F HX  93
KANSAS CITY    MOSUNNY   85  72  65 S14       29.99F HX  91
WICHITA        MOSUNNY   93  64  38 S20G30    29.95F HX  94
HAYS           SUNNY     97  59  28 S18G26    29.87F HX  96
LIBERAL        SUNNY     95  57  28 SW15G21   29.96F HX  94
GOODLAND       MOSUNNY   94  49  21 S10       29.95F HX  90
$$



USA.gov is the U.S. government's official web portal to all federal, state and local government web resources and services.